Hourly Data Report for April 26, 2021

NANAIMO A
BRITISH COLUMBIA
Current Station Operator: NAVCAN

49°03'16.000" N
123°52'12.000" W
28.00 m
1025365
YCD

Download Data

Hourly Data (April 2021)
Hourly Data Report for April 26, 2021
TIME
LST
Temp Definition
°C
Dew Point Definition
°C
Rel Hum Definition
%
Precip. Amount Definition
mm

Wind Dir Definition
10's deg

Wind Spd Definition
km/h
Visibility Definition
km
Stn Press Definition
kPa
Hmdx Definition


Wind Chill Definition


Weather Definition


00:00 8.0 8.0 99 LegendMM 19 4 LegendMM 100.51     LegendNANA
01:00 7.8 7.3 96 LegendMM 22 4 LegendMM 100.54     LegendNANA
02:00 7.8 7.5 97 LegendMM 28 5 LegendMM 100.56     LegendNANA
03:00 7.4 5.8 89 LegendMM 24 5 LegendMM 100.61     LegendNANA
04:00 7.3 6.3 93 LegendMM 26 1 LegendMM 100.65     LegendNANA
05:00 7.3 6.3 93 LegendMM 27 9 LegendMM 100.69     LegendNANA
06:00 7.5 6.3 92 LegendMM 27 8 LegendMM 100.74     LegendNANA
07:00 8.1 5.9 86 LegendMM 26 4 LegendMM 100.80     LegendNANA
08:00 8.4 6.6 88 LegendMM 28 4 LegendMM 100.86     LegendNANA
09:00 9.4 8.1 92 LegendMM 27 7 LegendMM 100.89     LegendNANA
10:00 13.0 8.1 72 LegendMM 6 6 LegendMM 100.92     LegendNANA
11:00 11.6 7.5 76 LegendMM 11 9 LegendMM 100.97     LegendNANA
12:00 11.3 8.1 80 LegendMM 36 6 LegendMM 100.99     LegendNANA
13:00 13.3 6.5 63 LegendMM 8 5 LegendMM 100.99     LegendNANA
14:00 13.6 7.0 64 LegendMM 3 7 LegendMM 100.99     LegendNANA
15:00 13.8 6.3 61 LegendMM 1 4 LegendMM 101.02     LegendNANA
16:00 14.4 6.7 59 LegendMM 16 8 LegendMM 101.04     LegendNANA
17:00 13.9 6.4 60 LegendMM 33 1 LegendMM 101.07     LegendNANA
18:00 13.6 6.8 63 LegendMM 23 4 LegendMM 101.06     LegendNANA
19:00 12.8 7.6 70 LegendMM 19 9 LegendMM 101.10     LegendNANA
20:00 11.0 8.6 85 LegendMM 12 2 LegendMM 101.15     LegendNANA
21:00 10.3 7.2 81 LegendMM 27 8 LegendMM 101.23     LegendNANA
22:00 10.9 5.5 69 LegendMM 28 9 LegendMM 101.25     LegendNANA
23:00 9.7 5.4 75 LegendMM 23 9 LegendMM 101.25     LegendNANA

Notes on Data Quality.

Legend

  • E = Estimated
  • M = Missing
  • NA = Not Available*
  • [empty] = Indicates an unobserved value
Date modified: